EUTELSAT HOT BIRD 13C

Last updated on Oct. 23, 2020, 5:56 a.m. UTC

1 33459U 08065A   20296.80743779  .00000072  00000-0  00000-0 0  9996
2 33459   0.0339 299.3470 0003714 235.7952 160.2330  1.00270346 26650
UTC
Height (km)
Latitude
Longitude
Inclination
Orbital Period
UTC large
Height (km)
Speed (km/s)
/
Latitude / Longitude
Inclination (degrees)
Orbital Period (minutes)
Azimuth
Elevation
Range (km)
Doppler Factor
iOS Compass Heading
iOS Angle

Next 30 passes for location: Hong Kong

Rise time Rise Azimuth (degrees) Set time Set Azimuth (degrees) Duration Max altitude (degrees)

No matching passes for this satellites